Dewpoint
69 70 69 69 68 68 70 70 69 69 70 70 70 70 69 70 70 70 70 71 72 71 70 70 69 69 69 68 68 68 66 66 66 67 67 67 67 68 67 67 68 66
69 69 69 69 68 68 69 70 70 70 70 70 70 70 70 70 70 70 70 71 72 71 70 70 70 69 69 68 69 68 66 67 67 67 67 68 67 67 68 68 68 67
69 69 69 69 69 69 70 70 69 69 70 70 70 70 71 71 70 70 71 71 71 71 71 70 70 69 69 69 69 69 67 67 67 67 68 68 67 67 67 68 67 67
69 69 69 70 70 69 70 70 69 69 69 70 70 71 71 71 71 71 71 71 71 71 71 71 70 70 69 69 69 68 68 67 66 67 67 68 67 67 67 67 67 67
69 69 69 70 70 68 70 69 70 69 69 68 71 71 70 70 70 70 71 71 71 70 70 70 70 70 70 69 69 68 67 67 67 67 66 66 67 67 67 67 67 67
69 68 68 69 70 69 70 69 70 70 69 70 70 70 70 70 69 70 70 71 70 70 70 70 69 69 69 69 69 68 67 67 66 66 65 65 66 66 65 66 66 66
69 69 69 69 70 69 69 69 70 70 69 69 69 69 69 69 69 69 69 69 69 69 69 70 69 69 69 69 68 67 67 67 66 64 64 64 66 66 65 65 65 65
68 68 68 69 68 69 69 69 68 69 70 69 68 69 68 67 68 69 68 68 68 68 68 68 68 68 69 68 67 66 67 67 66 64 64 64 65 64 65 65 66 65
68 68 68 68 68 68 69 68 68 69 69 69 69 69 68 68 68 68 68 67 67 68 67 67 68 67 69 69 68 67 66 67 67 65 64 64 65 64 64 65 66 66
68 68 69 68 68 68 69 69 69 68 69 69 68 69 67 68 67 67 67 67 67 67 67 67 67 67 67 67 67 67 66 66 66 66 65 65 65 64 63 65 65 66
68 68 69 69 69 68 69 69 69 68 68 68 68 67 68 68 68 68 68 67 67 67 66 67 67 66 65 66 67 67 67 66 65 65 66 65 66 65 65 64 65 66
68 68 68 69 69 68 69 68 68 67 68 69 67 67 67 67 67 67 66 66 66 66 66 66 67 67 65 66 66 67 67 66 66 65 65 65 65 65 64 65 65 65
67 67 67 68 69 69 68 68 67 67 67 67 67 67 67 67 67 67 67 66 66 66 66 66 66 66 66 66 66 66 66 66 66 66 66 66 65 64 65 65 65 65
66 67 67 67 67 67 67 68 68 68 68 67 66 66 66 65 65 67 67 67 67 66 66 67 66 66 66 66 66 65 66 66 67 67 66 66 66 65 65 65 66 66
66 66 67 67 67 67 67 67 67 67 67 67 67 66 66 65 65 66 67 67 67 67 67 66 66 66 66 66 66 66 66 67 67 67 66 66 65 65 65 65 65 66
65 65 66 66 66 66 66 66 67 67 67 67 66 66 65 65 65 65 65 66 66 66 66 66 67 67 64 60 61 66 67 66 67 67 66 65 65 64 65 65 65 65
63 65 65 65 66 66 66 66 66 66 67 66 66 66 66 66 66 65 65 66 65 66 66 66 67 66 57 54 55 57 65 67 67 67 67 66 66 66 65 65 65 64
55 64 65 65 65 65 65 65 66 66 66 66 66 67 67 67 66 65 65 66 67 67 67 67 67 61 52 53 54 54 58 67 68 67 67 67 67 66 66 65 64 64
48 58 64 64 65 65 65 66 65 66 65 66 66 67 67 66 65 65 66 66 67 66 67 68 68 57 50 51 52 52 53 62 66 67 67 67 68 67 66 65 64 64
46 49 60 64 65 65 65 65 65 65 66 66 67 67 67 66 66 66 65 66 67 67 67 67 68 56 50 50 51 50 51 56 67 67 68 67 68 67 66 65 65 65
46 46 52 62 64 65 65 65 65 66 66 66 66 66 66 66 67 67 65 66 67 68 68 68 68 52 50 49 49 49 49 52 68 67 68 68 68 68 66 67 67 66
48 46 49 57 64 65 65 64 65 66 66 67 67 67 66 66 67 66 66 66 68 68 68 68 73 46 49 48 48 49 47 62 67 67 67 68 68 68 67 67 66 66
48 48 48 53 61 64 64 65 66 66 67 67 66 66 66 66 66 66 66 65 66 67 68 69 72 52 47 47 48 47 51 65 67 66 67 68 68 68 67 67 67 67
49 48 47 50 58 63 64 66 66 67 67 66 66 66 66 66 66 65 65 66 66 67 67 69 70 57 45 47 47 46 56 66 66 66 67 68 68 68 68 67 67 63
50 50 47 50 57 62 65 66 66 66 66 67 66 66 66 66 65 65 65 65 66 67 65 67 68 60 45 46 46 46 57 66 66 66 66 67 67 67 68 67 67 63
51 52 48 51 57 62 65 66 66 67 67 67 66 65 64 64 65 64 64 65 65 66 68 67 67 69 54 45 46 46 52 66 67 66 66 67 67 66 66 66 66 66